Weather History for Waupaca, WI

Change the Weather History Date:

Wednesday, November 30, 2011

  Actual Average Record
Temperature  
Mean Temperature 32 °F -  
Max Temperature 44 °F 37 °F 59 °F (1962)
Min Temperature 21 °F 20 °F -5 °F (1958)
Degree Days  
Heating Degree Days 32    
Moisture  
Dew Point 16 °F    
Average Humidity 54    
Maximum Humidity 86    
Minimum Humidity 25    
Precipitation  
Precipitation 0.00 in - - ()
Sea Level Pressure  
Sea Level Pressure 30.00 in    
Wind  
Wind Speed 5 mph (WSW)    
Max Wind Speed 10 mph    
Max Gust Speed -    
Visibility 10 miles    
Events      
Averages and records for this station are not official NWS values.
T = Trace of Precipitation, MM = Missing Value Source: NWS Daily Summary

Daily Weather History Graph

Daily Weather History Graph

Search for Another Location

Airport:

Trip Planner

Search our weather history database for the weather conditions in past years. The results will help you decide how hot, cold, wet, or windy it might be!

Date:

Astronomy

Nov. 30, 2011 Rise Set
Actual Time 7:10 AM CST 4:18 PM CST
Civil Twilight 6:37 AM CST 4:51 PM CST
Nautical Twilight 6:01 AM CST 5:27 PM CST
Astronomical Twilight 5:26 AM CST 6:02 PM CST
Moon 11:21 AM CST (11/30) 10:23 PM CST (11/30)
Length of Visible Light 10h 13m
Length of Day
9h 08m
Waxing Crescent, 34% of the Moon is Illuminated
Nov 30
Waxing Crescent
Dec 2
First Quarter
Dec 10
Full
Dec 17
Last Quarter
Dec 24
New

Hourly Weather History & Observations

Time (CST) Temp. Windchill Dew Point Humidity Pressure Visibility Wind Dir Wind Speed Gust Speed Precip Events Conditions
12:15 AM 26.6 °F 20.0 °F 19.4 °F 74% 30.02 in 10.0 mi NW 5.8 mph - N/A   Clear
12:35 AM 26.6 °F 22.6 °F 19.4 °F 74% 30.01 in 10.0 mi NW 3.5 mph - N/A   Clear
12:55 AM 26.6 °F 22.6 °F 19.4 °F 74% 30.01 in 10.0 mi WNW 3.5 mph - N/A   Clear
1:15 AM 26.6 °F 20.0 °F 19.4 °F 74% 30.01 in 10.0 mi WNW 5.8 mph - N/A   Clear
1:35 AM 26.6 °F 21.2 °F 19.4 °F 74% 30.02 in 10.0 mi NW 4.6 mph - N/A   Clear
1:55 AM 26.6 °F 20.0 °F 19.4 °F 74% 30.02 in 10.0 mi NW 5.8 mph - N/A   Clear
2:15 AM 26.6 °F 21.2 °F 19.4 °F 74% 30.02 in 10.0 mi NW 4.6 mph - N/A   Clear
2:55 AM 26.6 °F 21.2 °F 17.6 °F 69% 30.01 in 10.0 mi NW 4.6 mph - N/A   Clear
3:15 AM 26.6 °F 20.0 °F 17.6 °F 69% 30.01 in 10.0 mi WNW 5.8 mph - N/A   Clear
3:35 AM 26.6 °F 21.2 °F 19.4 °F 74% 30.01 in 10.0 mi WNW 4.6 mph - N/A   Clear
3:55 AM 24.8 °F 19.1 °F 19.4 °F 80% 30.00 in 10.0 mi West 4.6 mph - N/A   Clear
4:15 AM 24.8 °F 19.1 °F 19.4 °F 80% 30.00 in 10.0 mi West 4.6 mph - N/A   Clear
4:35 AM 24.8 °F 19.1 °F 19.4 °F 80% 30.00 in 10.0 mi WNW 4.6 mph - N/A   Clear
4:55 AM 23.0 °F 17.0 °F 17.6 °F 80% 30.00 in 10.0 mi West 4.6 mph - N/A   Clear
5:15 AM 23.0 °F 17.0 °F 17.6 °F 80% 30.00 in 10.0 mi WNW 4.6 mph - N/A   Clear
5:35 AM 23.0 °F 18.4 °F 17.6 °F 80% 30.00 in 10.0 mi WNW 3.5 mph - N/A   Clear
5:55 AM 23.0 °F 18.4 °F 17.6 °F 80% 30.01 in 10.0 mi West 3.5 mph - N/A   Clear
6:15 AM 21.2 °F 16.4 °F 17.6 °F 86% 30.01 in 10.0 mi West 3.5 mph - N/A   Clear
6:35 AM 21.2 °F 16.4 °F 17.6 °F 86% 30.01 in 10.0 mi West 3.5 mph - N/A   Clear
6:55 AM 21.2 °F - 17.6 °F 86% 30.01 in 10.0 mi Calm Calm - N/A   Clear
7:15 AM 21.2 °F - 17.6 °F 86% 30.01 in 10.0 mi Calm Calm - N/A   Clear
7:35 AM 21.2 °F 16.4 °F 17.6 °F 86% 30.01 in 10.0 mi SW 3.5 mph - N/A   Clear
7:55 AM 23.0 °F 17.0 °F 19.4 °F 86% 30.01 in 10.0 mi WSW 4.6 mph - N/A   Clear
8:15 AM 24.8 °F 20.5 °F 19.4 °F 80% 30.01 in 10.0 mi WSW 3.5 mph - N/A   Clear
8:35 AM 28.4 °F 23.3 °F 19.4 °F 69% 30.01 in 10.0 mi West 4.6 mph - N/A   Clear
8:55 AM 30.2 °F 25.4 °F 19.4 °F 64% 30.01 in 10.0 mi West 4.6 mph - N/A   Clear
10:15 AM 35.6 °F 31.7 °F 19.4 °F 52% 30.02 in 10.0 mi SW 4.6 mph - N/A   Clear
10:35 AM 35.6 °F 30.7 °F 17.6 °F 48% 30.01 in 10.0 mi WSW 5.8 mph - N/A   Clear
10:55 AM 37.4 °F 32.8 °F 15.8 °F 41% 30.00 in 10.0 mi SW 5.8 mph - N/A   Clear
11:35 AM 41.0 °F 36.4 °F 14.0 °F 33% 29.98 in 10.0 mi WSW 6.9 mph - N/A   Clear
11:55 AM 42.8 °F 37.5 °F 12.2 °F 29% 29.98 in 10.0 mi SW 9.2 mph - N/A   Clear
12:15 PM 42.8 °F 40.1 °F 12.2 °F 29% 29.97 in 10.0 mi SW 4.6 mph - N/A   Clear
12:35 PM 44.6 °F 41.4 °F 12.2 °F 27% 29.97 in 10.0 mi SW 5.8 mph - N/A   Clear
12:55 PM 44.6 °F 40.2 °F 12.2 °F 27% 29.97 in 10.0 mi SW 8.1 mph - N/A   Clear
1:15 PM 44.6 °F 39.2 °F 12.2 °F 27% 29.96 in 10.0 mi SW 10.4 mph - N/A   Clear
1:35 PM 44.6 °F 39.2 °F 10.4 °F 25% 29.96 in 10.0 mi WSW 10.4 mph - N/A   Clear
1:55 PM 42.8 °F 38.0 °F 10.4 °F 27% 29.96 in 10.0 mi WSW 8.1 mph - N/A   Clear
2:15 PM 44.6 °F 42.2 °F 12.2 °F 27% 29.96 in 10.0 mi SW 4.6 mph - N/A   Clear
2:35 PM 44.6 °F 41.4 °F 12.2 °F 27% 29.96 in 10.0 mi SSW 5.8 mph - N/A   Clear
2:55 PM 44.6 °F 42.2 °F 12.2 °F 27% 29.96 in 10.0 mi SW 4.6 mph - N/A   Clear
3:15 PM 42.8 °F 41.1 °F 12.2 °F 29% 29.97 in 10.0 mi South 3.5 mph - N/A   Clear
3:35 PM 42.8 °F 39.3 °F 12.2 °F 29% 29.97 in 10.0 mi South 5.8 mph - N/A   Clear
3:55 PM 41.0 °F 37.1 °F 14.0 °F 33% 29.97 in 10.0 mi South 5.8 mph - N/A   Clear
4:15 PM 41.0 °F 39.0 °F 15.8 °F 36% 29.97 in 10.0 mi South 3.5 mph - N/A   Clear
4:35 PM 39.2 °F 35.9 °F 17.6 °F 42% 29.97 in 10.0 mi South 4.6 mph - N/A   Scattered Clouds
4:55 PM 39.2 °F 35.9 °F 17.6 °F 42% 29.97 in 10.0 mi South 4.6 mph - N/A   Mostly Cloudy
5:15 PM 39.2 °F 35.9 °F 17.6 °F 42% 29.98 in 10.0 mi South 4.6 mph - N/A   Overcast
5:35 PM 39.2 °F 35.0 °F 15.8 °F 39% 29.99 in 10.0 mi South 5.8 mph - N/A   Overcast
5:55 PM 39.2 °F 35.9 °F 15.8 °F 39% 29.99 in 10.0 mi SSW 4.6 mph - N/A   Overcast
6:15 PM 39.2 °F 35.9 °F 14.0 °F 36% 29.99 in 10.0 mi SSW 4.6 mph - N/A   Overcast
6:35 PM 37.4 °F 32.8 °F 14.0 °F 38% 29.99 in 10.0 mi South 5.8 mph - N/A   Mostly Cloudy
6:55 PM 37.4 °F 33.8 °F 14.0 °F 38% 29.99 in 10.0 mi South 4.6 mph - N/A   Overcast
7:15 PM 37.4 °F 34.9 °F 15.8 °F 41% 30.00 in 10.0 mi SSW 3.5 mph - N/A   Overcast
7:35 PM 37.4 °F 33.8 °F 14.0 °F 38% 30.00 in 10.0 mi SSW 4.6 mph - N/A   Overcast
7:55 PM 37.4 °F 33.8 °F 14.0 °F 38% 30.01 in 10.0 mi SSW 4.6 mph - N/A   Overcast
8:15 PM 39.2 °F 37.0 °F 12.2 °F 33% 30.01 in 10.0 mi SSW 3.5 mph - N/A   Overcast
8:35 PM 37.4 °F - 15.8 °F 41% 30.02 in 10.0 mi Calm Calm - N/A   Scattered Clouds
9:15 PM 37.4 °F - 14.0 °F 38% 30.03 in 10.0 mi Calm Calm - N/A   Mostly Cloudy
9:35 PM 37.4 °F - 14.0 °F 38% 30.03 in 10.0 mi Calm Calm - N/A   Overcast
9:55 PM 37.4 °F 34.9 °F 17.6 °F 45% 30.05 in 10.0 mi SSW 3.5 mph - N/A   Overcast
10:15 PM 37.4 °F 34.9 °F 17.6 °F 45% 30.05 in 10.0 mi South 3.5 mph - N/A   Overcast
10:35 PM 37.4 °F 34.9 °F 17.6 °F 45% 30.06 in 10.0 mi South 3.5 mph - N/A   Overcast
10:55 PM 37.4 °F 34.9 °F 17.6 °F 45% 30.06 in 10.0 mi SSW 3.5 mph - N/A   Overcast
11:15 PM 37.4 °F 34.9 °F 17.6 °F 45% 30.07 in 10.0 mi South 3.5 mph - N/A   Overcast
11:35 PM 37.4 °F - 15.8 °F 41% 30.08 in 10.0 mi Calm Calm - N/A   Overcast
11:55 PM 35.6 °F - 17.6 °F 48% 30.08 in 10.0 mi Calm Calm - N/A   Mostly Cloudy